Current weather by "City, St" or "zip code"  
 

Current Conditions: Concordia, Blosser Municipal Airport, KS

Fair with Haze


47.0 F

Last Updated on Oct 29 2020, 6:55 pm CDT
Humidity: 50%
Wind Speed: SW 6.9 mph
Barometer 30.15 in
Dewpoint: 28.9 F
Visibility: 5.00 mi
Precip: --
Heat Index: NA
Wind Chill: 44 F
Current conditions at:

Concordia, Blosser Municipal Airport, KS (KCNK)

Lat: 39.55139 Lon: 97.65056

Local Radar Image active severe weather and emergency alerts image image weather storm and storm spotter reports image weather observation monitoring service image
Local
Radar
Active
Alerts
Storm Reports Obs
Monitoring

Sign-up For Email & Text Message Weather Alert Notification Services



Advertise Here

Observation History for Concordia, Blosser Municipal Airport, KS


Time Wind
(mph)
Vis
(mi)
Weather Precip (in) Temperature (F) Relative
Humidity
Wind
Chill
(F)
Heat
Index
(F)
Pressure
Air Dwpt altimeter
(in)
sea level
(mb)
Rmks
6:55 pm CDT SW 6.9 5.00 Fair with Haze -- 47.0 28.9 50% 44 NA 30.15 1021.5
5:55 pm CDT W 5.8 10.00 Fair -- 52.0 28.0 40% 50 NA 30.14 1021.1
4:55 pm CDT W 8.1 10.00 Fair -- 53.0 28.0 38% 50 NA 30.15 1021.3
3:55 pm CDT W 8.1 10.00 Fair -- 52.0 26.1 37% 49 NA 30.15 1021.3
2:55 pm CDT N 9.2 10.00 Fair -- 51.0 27.0 39% 48 NA 30.16 1021.4
1:55 pm CDT 4.6 10.00 Fair -- 50.0 27.0 41% 48 NA 30.17 1021.7
12:55 pm CDT N 15.0 G 20.7 10.00 Fair -- 48.0 26.1 42% 42 NA 30.20 1022.8
11:55 am CDT NE 13.8 G 20.7 10.00 Fair -- 47.0 25.0 42% 41 NA 30.21 1023.0
10:55 am CDT N 13.8 G 21.9 10.00 Fair -- 44.0 27.0 51% 37 NA 30.20 1023.0
9:55 am CDT N 13.8 10.00 Fair -- 40.0 28.0 63% 32 NA 30.19 1022.6
8:55 am CDT N 11.5 10.00 Fair -- 37.0 28.9 73% 29 NA 30.15 1021.5
7:55 am CDT N 17.3 G 25.3 10.00 Fair -- 38.0 30.0 73% 29 NA 30.12 1020.4
6:55 am CDT N 16.1 G 24.2 10.00 Fair -- 39.0 30.0 70% 30 NA 30.10 1019.7
5:55 am CDT N 15.0 10.00 Fair -- 41.0 30.9 67% 33 NA 30.07 1018.5
4:55 am CDT N 16.1 10.00 Fair -- 42.0 30.0 62% 34 NA 30.05 1017.9
3:55 am CDT N 19.6 G 28.8 10.00 Fair -- 43.0 34.0 71% 35 NA 30.02 1016.7
2:55 am CDT N 15.0 G 27.6 10.00 Fair -- 44.0 35.1 71% 37 NA 30.01 1016.3
12:55 am CDT N 16.1 10.00 Fair -- 48.0 35.1 61% 42 NA 30.01 1016.3
11:55 pm CDT N 15.0 G 26.5 10.00 Fair -- 50.0 35.1 57% 45 NA 29.97 1015.1
10:55 pm CDT NE 12.7 10.00 Fair -- 50.0 27.0 41% 45 NA 29.96 1014.9
9:55 pm CDT NE 8.1 10.00 Fair -- 49.0 24.1 38% 46 NA 29.95 1014.5
8:55 pm CDT N 11.5 10.00 Fair -- 50.0 21.9 33% 46 NA 29.90 1013.1
7:55 pm CDT N 5.8 10.00 Fair -- 49.0 23.0 36% 47 NA 29.93 1014.1

Regional Weather Observation


Hebron, Hebron Municipal Airport, NE (KHJH)

Fair
40.0 F

Hastings, Hastings Municipal Airport, NE (KHSI)

Fair
46.0 F

York, York Municipal Airport, NE (KJYR)

Fair
43.0 F

Aurora, Aurora Municipal Airport, NE (KAUH)

Fair
43.0 F

Fort Riley - Marshall AAF, KS (KFRI)

Fair
50.0 F

Manhattan, Manhattan Municipal Airport, KS (KMHK)

Fair
42.0 F